OpenBCM V1.08-5-g2f4a (Linux)

Packet Radio Mailbox

IZ3LSV

[San Dona' di P. JN]

 Login: GUEST





  
I0OJJ  > KEPS     04.04.25 02:25l 337 Lines 16051 Bytes #15 (0) @ AMSAT
BID : ORB25094.1
Read: GUEST
Subj: 2Line Orbital Elements 25094.AMSAT
Path: IZ3LSV<I0OJJ
Sent: 250404/0025z @:I0OJJ.ITA.EU [Rome] obcm1.08-6-g5b69
From: I0OJJ @ I0OJJ.ITA.EU (Gustavo)
To:   KEPS @ AMSAT
X-Info: This message was generated automatically


QST de W1STR

AMSAT Orbital Elements for Amateur Satellites in TLE Format
From Orbital Analysis Office
New England Sci-Tech STEM Education Center
Natick, MA April 04, 2025
To all radio amateurs


These element sets describe the orbits of various satellites 
in use by the amateur radio community. For details see:
www.amsat.org/keplerian-elements-formats/

A daily update of element sets is available at:
www.amsat.org/tle/daily-bulletin.txt
or without bulletin text:
www.amsat.org/tle/dailytle.txt


AO-07
1 07530U 74089B   25093.54896523 -.00000038  00000-0  50337-4 0  9998
2 07530 101.9953  97.0955 0011891 249.5296 232.9858 12.53687860305424
UO-11
1 14781U 84021B   25093.61392713  .00003187  00000-0  34369-3 0  9994
2 14781  97.7481  61.3476 0007404 185.5361 174.5776 14.89077418191670
AO-27
1 22825U 93061C   25093.57309045  .00000272  00000-0  12118-3 0  9997
2 22825  98.7438 154.7741 0007510 314.3511  45.7055 14.30766466644137
FO-29
1 24278U 96046B   25093.47125467  .00000015  00000-0  49638-4 0  9993
2 24278  98.5824 356.1787 0350344 156.3051 205.4672 13.53242214413694
NOAA-15
1 25338U 98030A   25093.84772249  .00000377  00000-0  17262-3 0  9991
2 25338  98.5424 120.5653 0010152 188.1318 171.9700 14.26931291398885
GO-32
1 25397U 98043D   25093.53368349  .00000250  00000-0  12844-3 0  9999
2 25397  98.9654  71.2734 0002191  63.0444 297.0958 14.24287957388746
ISS
1 25544U 98067A   25093.84383553  .00013798  00000-0  25624-3 0  9998
2 25544  51.6367 315.2211 0004818   6.2247 353.8801 15.49208916503637
NO-44
1 26931U 01043C   25093.30345887  .00000425  00000-0  19010-3 0  9991
2 26931  67.0507 301.7804 0005582 269.1608  90.8854 14.31682318227476
SO-50
1 27607U 02058C   25093.59064515  .00004493  00000-0  58051-3 0  9993
2 27607  64.5553  47.2760 0048479 350.1584   9.8567 14.81322420199300
CO-55
1 27844U 03031E   25093.50526024  .00000788  00000-0  36269-3 0  9997
2 27844  98.6788 102.6390 0010174  29.1143 331.0601 14.23916892129097
CO-57
1 27848U 03031J   25093.00074757  .00000667  00000-0  31365-3 0  9995
2 27848  98.6818 102.1973 0010387  46.2280 313.9756 14.23262091128752
RS-22
1 27939U 03042A   25093.87061719  .00003076  00000-0  49696-3 0  9990
2 27939  98.3223 261.7399 0010949 216.6607 251.3165 14.72085477151013
NOAA-18
1 28654U 05018A   25093.80448922  .00000401  00000-0  23591-3 0  9993
2 28654  98.8439 174.0287 0013296 322.0695  37.9540 14.13564610 24314
CO-58
1 28895U 05043F   25093.37488997  .00005078  00000-0  84118-3 0  9993
2 28895  98.2389 236.9390 0015362 156.9167 203.2732 14.70637299 37295
CO-65
1 32785U 08021C   25093.14324093  .00012647  00000-0  93296-3 0  9993
2 32785  97.7780  63.8772 0011835  81.0163 279.2401 15.03367014918941
AAUSAT2
1 32788U 08021F   25093.87335706  .00249104  00000-0  25471-2 0  9998
2 32788  97.6044  88.5910 0007292 136.1019 224.0820 15.64198222922980
CO-66
1 32791U 08021J   25093.19207883  .00028753  00000-0  14799-2 0  9997
2 32791  97.7248  71.8522 0006418  62.9676 297.2210 15.16363703920279
RS-30
1 32953U 08025A   25093.84568551  .00000043  00000-0  23503-3 0  9991
2 32953  82.4977 268.6870 0019446 188.8691 171.2048 12.43161438765243
NOAA-19
1 33591U 09005A   25093.87082594  .00000370  00000-0  22101-3 0  9996
2 33591  99.0033 158.1855 0013784 188.0292 172.0662 14.13330059832683
SRMSAT
1 37841U 11058D   25093.51023321  .00000630  00000-0  19877-3 0  9998
2 37841  19.9708 200.4087 0011910  47.3699  42.4520 14.11402538695624
ZACUBE-1
1 39417U 13066B   25093.84581779  .00010233  00000-0  90601-3 0  9996
2 39417  97.7744  51.2799 0042605 275.4993  84.1369 14.95759885614938
Delfi-N3xt
1 39428U 13066N   25093.77787854  .00013569  00000-0  14181-2 0  9995
2 39428  97.8352  12.2347 0085297 219.4546 140.0439 14.87101976609328
GOMX-1
1 39430U 13066Q   25093.86964107  .00004409  00000-0  69018-3 0  9999
2 39430  97.6927 316.6081 0134419  46.3767 314.8496 14.67268041605624
LO-74
1 39440U 13066AA  25093.84102548  .00010663  00000-0  10930-2 0  9998
2 39440  97.8438  38.9195 0064528  41.6324 318.9779 14.89076514612706
AO-73
1 39444U 13066AE  25093.58304345  .00015678  00000-0  12129-2 0  9995
2 39444  97.7658  55.3511 0039414 252.1998 107.4923 15.00944558613530
DTUSAT-2
1 40030U 14033W   25093.85784825  .00016246  00000-0  10892-2 0  9995
2 40030  98.0503  62.5340 0007406 291.1945  68.8489 15.06928590586852
EO-80
1 40032U 14033Y   25093.48300011  .00014202  00000-0  95140-3 0  9997
2 40032  98.0388  61.8904 0007128 214.9039 145.1720 15.06994296586269
LILACSAT-2
1 40908U 15049K   25093.85759195  .00020832  00000-0  57842-3 0  9992
2 40908  97.5129 112.6622 0010937  50.2448 309.9757 15.36864617527976
IO-86
1 40931U 15052B   25038.81889873  .00001817  00000-0  15548-3 0  9993
2 40931   6.0001 108.1159 0012838 187.7041 172.2889 14.78568669506492
Horyu-4
1 41340U 16012D   25093.64246409  .00038318  00000-0  11560-2 0  9994
2 41340  30.9968 220.9474 0008866  84.6986 275.4670 15.33036323502496
Lapan A3
1 41603U 16040E   25093.83774916  .00007319  00000-0  26029-3 0  9991
2 41603  97.1402 101.0858 0012476 139.9225 220.2938 15.29191688487581
CAS-2T
1 41847U 16066G   25093.57873295  .00002466  00000-0  35857-3 0  9997
2 41847  98.4231 168.6180 0347277  21.3739 340.1557 14.43273760441357
CAS-4B
1 42759U 17034B   25093.83626493  .00073008  00000-0  10869-2 0  9996
2 42759  43.0106 357.0912 0018035 190.4986 169.5501 15.54025320432186
CAS-4A
1 42761U 17034D   25093.84791016  .00074048  00000-0  10729-2 0  9994
2 42761  43.0142 354.7420 0019493 195.3177 164.7096 15.54726654432209
TechnoSat
1 42829U 17042E   25093.73419040  .00007707  00000-0  60524-3 0  9997
2 42829  97.3923 265.6451 0014229 141.8864 218.3370 15.01086317420696
AO-91
1 43017U 17073E   25093.53484262  .00018199  00000-0  95204-3 0  9997
2 43017  97.5330 326.0247 0177698  35.1475 326.1321 15.03195117399137
S-Net D
1 43186U 18014G   25093.30116913  .00011423  00000-0  68914-3 0  9991
2 43186  97.5672 356.9161 0011225  95.1901 265.0610 15.10846674392216
S-Net B
1 43187U 18014H   25093.30573349  .00011464  00000-0  69181-3 0  9994
2 43187  97.5677 356.8888 0012036  91.2032 269.0577 15.10829770392214
S-Net A
1 43188U 18014J   25093.30178599  .00011420  00000-0  68881-3 0  9991
2 43188  97.5685 357.0266 0011861  91.8743 268.3845 15.10851419392212
S-Net C
1 43189U 18014K   25093.70537752  .00010049  00000-0  60669-3 0  9998
2 43189  97.5700 357.4283 0013499  84.4028 275.8741 15.10832789390829
Ten-Koh
1 43677U 18084G   25093.43820778  .00006536  00000-0  52879-3 0  9990
2 43677  98.0965 263.0185 0010397 136.9532 223.2505 15.00090450350179
PO-101
1 43678U 18084H   25093.86517013  .00005263  00000-0  45229-3 0  9990
2 43678  98.0992 267.4748 0008738 146.6825 213.4948 14.97859429350392
QO-100
1 43700U 18090A   25093.13517094  .00000134  00000-0  00000-0 0  9999
2 43700   0.0151 231.8909 0001457 173.0874 221.2146  1.00274262 23267
MinXSS-2
1 43758U 18099A   25093.57752719  .00028482  00000-0  12109-2 0  9995
2 43758  97.5078 159.4985 0012362  38.8390 321.3732 15.22925031346768
AO-95
1 43770U 18099N   25093.41277936  .00019804  00000-0  10442-2 0  9991
2 43770  97.4990 152.2877 0012542  89.3872 270.8797 15.15537549346372
RANGE-A
1 43773U 18099R   25093.68060245  .00010316  00000-0  66907-3 0  9993
2 43773  97.4570 144.0292 0012749  66.5797 293.6770 15.08207102346130
MOVE-II
1 43780U 18099Y   25093.72514979  .00142060  00000-0  22657-2 0  9999
2 43780  97.4716 165.4942 0000439   9.6371 350.4890 15.52716818347356
SNUSat 2
1 43782U 18099AA  25093.12672664  .00015464  00000-0  87268-3 0  9998
2 43782  97.4675 149.2918 0012655  34.5489 325.6562 15.13169693346297
SnugLite
1 43784U 18099AC  25093.12689662  .00018593  00000-0  97430-3 0  9994
2 43784  97.4490 148.7296 0004140  53.8237 306.3378 15.15829450346413
ITASat 1
1 43786U 18099AE  25093.59133042  .00011380  00000-0  66902-3 0  9990
2 43786  97.4641 149.4443 0016088  80.8741 279.4309 15.11727061346335
EAGLET 1
1 43790U 18099AJ  25093.09948753  .00009728  00000-0  63058-3 0  9995
2 43790  97.4840 149.1251 0013369  65.3611 294.9008 15.08238323345890
ESEO
1 43792U 18099AL  25093.53619239  .00003962  00000-0  30416-3 0  9996
2 43792  97.4579 143.6880 0012583  40.4671 319.7488 15.02261031345754
CSIM
1 43793U 18099AM  25093.82894769  .00126130  00000-0  19791-2 0  9997
2 43793  97.4904 167.7295 0003576 334.9117  25.1961 15.53225327347213
JO-97
1 43803U 18099AX  25093.43360093  .00024101  00000-0  11601-2 0  9991
2 43803  97.4738 153.1752 0007706  31.1798 328.9892 15.18737097346575
Suomi 100
1 43804U 18099AY  25093.41246055  .00020777  00000-0  10613-2 0  9998
2 43804  97.4801 152.6257 0012878  29.2026 330.9924 15.16643655346516
ISAT
1 43879U 18111D   25093.71661914  .00036038  00000-0  13782-2 0  9990
2 43879  97.5988   6.7765 0012165  77.3151 282.9446 15.26432499341467
UWE-4
1 43880U 18111E   25093.73274001  .00028476  00000-0  12007-2 0  9997
2 43880  97.5929   5.7044 0015319  85.8147 274.4840 15.23167599341441
Sparrow
1 43881U 18111F   25093.74841473  .00036241  00000-0  13437-2 0  9999
2 43881  97.6122   9.4434 0010179 107.3309 252.9044 15.27478476341575
Prox-1
1 44339U 19036A   25093.42573474  .00024323  00000-0  32497-2 0  9998
2 44339  23.9958 142.3512 0007163  34.0424 326.0531 14.78049041308068
SONATE
1 44400U 19038Q   25093.52888502  .00136689  00000-0  11604-2 0  9997
2 44400  97.7031 112.7220 0010663 131.7174 228.5001 15.69147739318985
Taurus 1
1 44530U 19059C   25093.80700862  .00015341  00000-0  28981-2 0  9994
2 44530  98.5978 230.1195 0010236 234.6540 125.3706 14.64480901294164
